Regional Weather Roundup
Issued by NWS

Home | Current Version | Previous Version | Graphics & Text | Print | Product List | Glossary On
Versions: 1 2 3 4 5 6 7 8 9 10 11 12 13 14 15 16 17 18 19 20 21 22 23 24 25 26 27 28 29 30 31 32 33 34 35 36 37 38 39 40 41 42 43 44 45 46 47 48 49 50
000
ASUS43 KMPX 231601
RWRMN
WEATHER ROUNDUP FOR MINNESOTA
NATIONAL WEATHER SERVICE TWIN CITIES/CHANHASSEN MN
1100 AM CDT WED JUL 23 2014


NOTE: "FAIR" INDICATES FEW OR NO CLOUDS BELOW 12,000 FEET WITH NO
SIGNIFICANT WEATHER AND/OR OBSTRUCTIONS TO VISIBILITY. N/A MEANS
CURRENT SKY AND/OR WEATHER CONDITIONS ARE NOT AVAILABLE.

MNZ060>063-068>070-231700-
   Twin Cities Metro

CITY           SKY/WX    TMP DP  RH WIND       PRES   REMARKS
TWIN CITIES    MOSUNNY   77  52  41 VRB5      30.24F
ST PAUL        SUNNY     76  54  46 VRB6      30.23F
CRYSTAL        SUNNY     77  53  43 N6        30.23F
BLAINE         MOSUNNY   75  57  53 N9        30.24F
LAKEVILLE      SUNNY     73  55  53 E3        30.24F
EDEN PRAIRIE   SUNNY     77  55  46 VRB3      30.23F
SOUTH ST PAUL  SUNNY     76  53  45 N3        30.23F
LAKE ELMO      FAIR      73  59  60 NW5       30.25S
$$
MNZ001>005-007-008-013>017-022>024-027-028-231700-
   Northwest Minnesota

CITY           SKY/WX    TMP DP  RH WIND       PRES   REMARKS
BEMIDJI        MOSUNNY   70  53  54 N9        30.29S
HALLOCK        SUNNY     66  54  63 NE7       30.31S
ROSEAU         MOSUNNY   68  59  73 E5        30.30F
WARROAD        MOSUNNY   66  57  72 NE8       30.31S
THIEF RVR FALL MOSUNNY   66  59  77 N7        30.30F
CROOKSTON      PTSUNNY   68  57  68 N7        30.31S
FOSSTON        MOSUNNY   70  54  56 NW7       30.30F
DETROIT LAKES  PTSUNNY   68  55  64 CALM      30.31S
MOORHEAD       CLOUDY    70  64  83 NE6       30.30S
PARK RAPIDS    MOSUNNY   70  54  56 N9        30.28F
$$
MNZ006-009>011-018-025>026-231700-
   North Central Minnesota

CITY           SKY/WX    TMP DP  RH WIND       PRES   REMARKS
BAUDETTE       MOSUNNY   68  54  60 E6        30.31F
FLAG ISLAND    MOSUNNY   64  52  63 N3        30.30S
INTL FALLS     SUNNY     69  51  52 N7        30.29F
WASKISH        PTSUNNY   66  57  72 CALM      30.29S
BIG FORK       MOSUNNY   70  55  60 NE7       30.29F
LONGVILLE      MOSUNNY   70  57  64 CALM      30.28S
GRAND RAPIDS   MOSUNNY   70  54  56 NW3       30.27F
CRANE LAKE     SUNNY     64  52  63 N5        30.30S
ORR            PTSUNNY   66  50  55 NW5       30.26F
COOK           MOSUNNY   64  54  68 N6        30.28F
$$
MNZ012-019>021-037-231700-
   Northeast Minnesota

CITY           SKY/WX    TMP DP  RH WIND       PRES   REMARKS
DULUTH         MOSUNNY   71  52  50 N13       30.26R
ELY            MOSUNNY   66  52  59 N3        30.27S
HIBBING        SUNNY     70  53  54 NW12      30.27F
EVELETH        MOSUNNY   68  52  56 N8G17     30.27S
DULUTH HARBOR  MOSUNNY   68  57  68 E5        30.25S
TWO HARBORS    PTSUNNY   66  55  68 CALM      30.23S
SILVER BAY     MOSUNNY   68  57  68 N3        30.24S
GRAND MARAIS     N/A     57  50  77 CALM      30.24S
G MARAIS ARPRT MOSUNNY   61  48  63 N3        30.27S
$$
MNZ029>031-032-039>041-046>048-054>057-064-231700-
   West Central Minnesota

CITY           SKY/WX    TMP DP  RH WIND       PRES   REMARKS
FERGUS FALLS   MOSUNNY   72  54  53 N3        30.28S
WHEATON        MOSUNNY   73  57  56 CALM      30.30S
MORRIS         SUNNY     75  57  53 N5        30.28S
ALEXANDRIA     MOSUNNY   73  55  53 N6        30.30F
ELBOW LAKE     FAIR      72  57  58 N7        30.28F
WADENA         MOSUNNY   70  55  60 NE3       30.28F
GLENWOOD       SUNNY     73  55  53 NE3       30.29F
APPLETON       MOSUNNY   77  52  41 E9        30.27S
BENSON         SUNNY     75  55  50 E3        30.28S
ORTONVILLE     MOSUNNY   73  54  49 E3        30.29R
MADISON        SUNNY     77  57  50 E6        30.28S
WILLMAR        FAIR      75  52  43 NE3       30.29S
$$
MNZ033>034-036-042>043-049>051-058-059-231700-
   Central Minnesota

CITY           SKY/WX    TMP DP  RH WIND       PRES   REMARKS
ST CLOUD       MOSUNNY   77  53  43 N8        30.26S
SAUK CENTRE    FAIR      72  55  55 N5        30.28F
PAYNESVILLE    SUNNY     73  53  50 NW6       30.27F
AITKIN         PTSUNNY   73  61  64 N3        30.26S
PINE RIVER     MOSUNNY   70  55  60 N7        30.30S
BRAINERD       PTSUNNY   69  54  58 N8        30.27S
STAPLES        MOSUNNY   70  54  56 N7        30.28F
LONG PRAIRIE   FAIR      70  54  56 NW3       30.29S
LITTLE FALLS   MOSUNNY   70  52  52 NW5       30.26F
LITCHFIELD     MOSUNNY   75  57  53 N6        30.28R
BUFFALO        SUNNY     75  54  48 NW3       30.26S
MAPLE LAKE     SUNNY     75  58  55 N6        30.27R
$$
MNZ037-044-045-052-053-231700-
   East Central Minnesota

CITY           SKY/WX    TMP DP  RH WIND       PRES   REMARKS
PRINCETON      MOSUNNY   75  55  50 NW8       30.25S
MORA           MOSUNNY   70  55  60 N5        30.26S
CAMBRIDGE      MOSUNNY   77  57  50 NW9       30.22F
RUSH CITY      MOSUNNY   73  57  59 NW6       30.24F
MOOSE LAKE     MOSUNNY   70  55  60 N3        30.23F
HINCKLEY       FAIR      70  59  68 N6        30.25S
CLOQUET        MOSUNNY   70  54  56 NE8       30.25F
MCGREGOR       PTSUNNY   70  57  64 NE5       30.27S
$$
MNZ071>073-080-081-089-090-097-098-231700-
   Southwest Minnesota

CITY           SKY/WX    TMP DP  RH WIND       PRES   REMARKS
MONTEVIDEO     SUNNY     79  57  47 E6        30.29R
GRANITE FALLS  SUNNY     74  56  53 NE3       30.29S
CANBY          MOSUNNY   74  56  54 NE6       30.30S
MARSHALL       SUNNY     73  55  53 NE7       30.28R
REDWOOD FALLS  SUNNY     77  53  43 E7        30.27S
OLIVIA         SUNNY     73  52  46 CALM      30.27R
PIPESTONE      SUNNY     73  52  46 E8        30.30R
WINDOM         SUNNY     73  57  56 NE9       30.28R
WORTHINGTON    SUNNY     72  59  64 NE8       30.29F
JACKSON        SUNNY     73  59  60 E8        30.28R
TRACY          SUNNY     74  56  53 NE6       30.28S
SLAYTON        SUNNY     73  51  47 CALM      30.31R
$$
MNZ065>067-074>077-082>085-091>093-231700-
   South Central Minnesota

CITY           SKY/WX    TMP DP  RH WIND       PRES   REMARKS
MANKATO        SUNNY     73  55  53 N7        30.26S
NEW ULM        SUNNY     75  54  46 NE6       30.26S
ST JAMES       SUNNY     75  57  53 CALM      30.27S
FAIRMONT       SUNNY     73  57  56 E5        30.26S
GLENCOE        SUNNY     76  54  47 N8        30.26S
FARIBAULT      SUNNY     79  52  38 NE5       30.25F
OWATONNA       MOSUNNY   75  57  53 N5        30.25S
WASECA         MOSUNNY   72  54  53 NE3       30.27F
ALBERT LEA     MOSUNNY   75  55  50 NE5       30.25S
$$
MNZ078>079-086>088-094>096-231700-
   Southeast Minnesota

CITY           SKY/WX    TMP DP  RH WIND       PRES   REMARKS
ROCHESTER      PTSUNNY   73  59  61 NW5       30.26S
RED WING       SUNNY     79  55  44 NW5       30.22F
STANTON        SUNNY     76  54  46 NE5       30.23F
DODGE CENTER   PTSUNNY   73  61  64 NE5       30.26S
WINONA         SUNNY     73  55  53 CALM      30.24R
AUSTIN         MOSUNNY   75  54  46 E6        30.25S
PRESTON        MOSUNNY   70  61  74 N3        30.26S
$$
ABBREVIATIONS USED IN REMARKS
   TC - TEMPERATURES IN CELSIUS
  WCI - WIND CHILL INDEX
   HX - HEAT INDEX
  VSB - VISIBILITY
$$



USA.gov is the U.S. government's official web portal to all federal, state and local government web resources and services.